TimeCST,TemperatureF,Dew PointF,Humidity,Sea Level PressureIn,VisibilityMPH,Wind Direction,Wind SpeedMPH,Gust SpeedMPH,PrecipitationIn,Events,Conditions,WindDirDegrees,DateUTC
12:35 AM,24.3,18.5,79,30.12,10.0,ENE,5.8,-,N/A,,Clear,70,2013-03-02 06:35:00
12:55 AM,24.1,17.8,77,30.12,10.0,East,8.1,-,N/A,,Clear,80,2013-03-02 06:55:00
1:15 AM,25.5,16.3,68,30.12,10.0,East,8.1,-,N/A,,Scattered Clouds,80,2013-03-02 07:15:00
1:35 AM,25.5,16.7,69,30.11,10.0,ENE,8.1,-,N/A,,Scattered Clouds,70,2013-03-02 07:35:00
1:55 AM,25.9,17.4,70,30.11,10.0,East,8.1,-,N/A,,Overcast,80,2013-03-02 07:55:00
2:15 AM,25.9,17.1,69,30.11,10.0,NNE,4.6,-,N/A,,Overcast,30,2013-03-02 08:15:00
2:35 AM,26.1,16.9,68,30.11,10.0,NNE,4.6,-,N/A,,Overcast,20,2013-03-02 08:35:00
2:55 AM,25.9,16.9,69,30.11,10.0,North,3.5,-,N/A,,Overcast,10,2013-03-02 08:55:00
3:15 AM,26.2,16.7,67,30.11,10.0,NNE,4.6,-,N/A,,Overcast,30,2013-03-02 09:15:00
3:35 AM,26.2,17.4,69,30.11,10.0,NNE,4.6,-,N/A,,Overcast,20,2013-03-02 09:35:00
3:55 AM,26.2,18.0,71,30.11,10.0,North,4.6,-,N/A,,Overcast,360,2013-03-02 09:55:00
4:15 AM,26.1,16.9,68,30.11,10.0,NNE,5.8,-,N/A,,Overcast,20,2013-03-02 10:15:00
4:35 AM,26.1,17.6,70,30.11,10.0,North,5.8,-,N/A,,Overcast,360,2013-03-02 10:35:00
4:55 AM,26.1,19.0,75,30.11,10.0,North,9.2,-,N/A,,Overcast,10,2013-03-02 10:55:00
5:15 AM,25.9,19.9,78,30.11,10.0,North,6.9,-,N/A,,Overcast,360,2013-03-02 11:15:00
5:35 AM,25.9,20.1,79,30.11,10.0,North,6.9,-,N/A,,Overcast,360,2013-03-02 11:35:00
5:55 AM,26.1,19.8,77,30.11,10.0,North,11.5,-,N/A,,Overcast,360,2013-03-02 11:55:00
6:15 AM,25.7,19.2,76,30.11,10.0,NNE,10.4,-,N/A,,Overcast,20,2013-03-02 12:15:00
6:35 AM,25.3,19.0,77,30.12,10.0,North,9.2,-,N/A,,Overcast,10,2013-03-02 12:35:00
6:55 AM,25.2,18.3,75,30.13,10.0,NNE,12.7,17.3,N/A,,Overcast,20,2013-03-02 12:55:00
7:15 AM,25.5,17.2,71,30.12,10.0,NNE,10.4,-,N/A,,Overcast,20,2013-03-02 13:15:00
7:35 AM,25.7,18.0,73,30.13,10.0,North,10.4,-,N/A,,Overcast,10,2013-03-02 13:35:00
7:55 AM,25.7,18.5,74,30.13,10.0,NNE,10.4,-,N/A,,Overcast,20,2013-03-02 13:55:00
8:15 AM,26.1,18.3,73,30.13,10.0,North,9.2,-,N/A,,Overcast,10,2013-03-02 14:15:00
8:35 AM,26.6,18.9,73,30.13,10.0,NNE,9.2,-,N/A,,Overcast,20,2013-03-02 14:35:00
8:55 AM,26.6,18.5,71,30.13,10.0,NNE,9.2,-,N/A,,Overcast,20,2013-03-02 14:55:00
9:15 AM,26.6,18.5,71,30.13,10.0,North,9.2,-,N/A,,Overcast,360,2013-03-02 15:15:00
9:35 AM,27.1,18.5,70,30.13,10.0,North,10.4,-,N/A,,Overcast,10,2013-03-02 15:35:00
9:55 AM,28.0,19.0,69,30.13,10.0,NE,8.1,-,N/A,,Overcast,40,2013-03-02 15:55:00
10:15 AM,28.4,19.2,69,30.13,10.0,NE,8.1,16.1,N/A,,Overcast,40,2013-03-02 16:15:00
10:35 AM,29.5,18.9,65,30.12,10.0,NNE,8.1,-,N/A,,Mostly Cloudy,30,2013-03-02 16:35:00
10:55 AM,30.2,19.6,65,30.12,10.0,NNE,9.2,-,N/A,,Mostly Cloudy,30,2013-03-02 16:55:00
11:15 AM,30.6,18.7,61,30.12,10.0,North,9.2,18.4,N/A,,Overcast,360,2013-03-02 17:15:00
11:35 AM,30.7,20.8,67,30.12,10.0,North,12.7,17.3,N/A,,Overcast,10,2013-03-02 17:35:00
11:55 AM,29.8,19.9,67,30.11,10.0,North,12.7,18.4,N/A,,Overcast,10,2013-03-02 17:55:00
12:35 PM,30.7,21.4,68,30.10,10.0,North,15.0,-,N/A,,Mostly Cloudy,10,2013-03-02 18:35:00
12:55 PM,31.1,21.6,68,30.10,10.0,North,13.8,21.9,N/A,,Scattered Clouds,360,2013-03-02 18:55:00
1:15 PM,31.1,21.0,66,30.10,10.0,North,12.7,21.9,N/A,,Scattered Clouds,360,2013-03-02 19:15:00
1:35 PM,31.6,21.9,67,30.09,10.0,North,17.3,21.9,N/A,,Mostly Cloudy,360,2013-03-02 19:35:00
1:55 PM,31.5,21.4,66,30.09,10.0,North,15.0,20.7,N/A,,Mostly Cloudy,360,2013-03-02 19:55:00
2:15 PM,30.0,20.3,67,30.09,10.0,North,15.0,23.0,N/A,,Mostly Cloudy,360,2013-03-02 20:15:00
2:35 PM,30.6,21.7,70,30.09,10.0,North,13.8,18.4,N/A,,Overcast,360,2013-03-02 20:35:00
2:55 PM,30.6,21.2,68,30.09,10.0,North,15.0,20.7,N/A,,Overcast,350,2013-03-02 20:55:00
3:15 PM,30.0,20.3,67,30.09,10.0,North,16.1,23.0,N/A,,Mostly Cloudy,350,2013-03-02 21:15:00
3:35 PM,29.3,20.7,70,30.09,10.0,North,10.4,-,N/A,,Overcast,360,2013-03-02 21:35:00
3:55 PM,29.3,20.8,71,30.10,10.0,North,11.5,17.3,N/A,,Overcast,360,2013-03-02 21:55:00
4:15 PM,29.1,20.3,70,30.10,10.0,North,13.8,-,N/A,,Overcast,360,2013-03-02 22:15:00
4:35 PM,29.1,20.1,69,30.10,10.0,North,12.7,-,N/A,,Overcast,350,2013-03-02 22:35:00
4:55 PM,28.4,24.3,84,30.10,4.0,NNW,13.8,17.3,N/A,Snow,Light Snow,330,2013-03-02 22:55:00
5:15 PM,27.5,24.3,88,30.11,4.0,NNW,11.5,20.7,N/A,Snow,Light Snow,330,2013-03-02 23:15:00
5:35 PM,27.7,24.4,88,30.11,7.0,NNW,12.7,16.1,N/A,Snow,Light Snow,340,2013-03-02 23:35:00
5:55 PM,27.5,23.9,86,30.11,7.0,NW,12.7,19.6,N/A,Snow,Light Snow,320,2013-03-02 23:55:00
6:15 PM,27.3,23.9,87,30.11,5.0,NNW,13.8,-,N/A,Snow,Light Snow,340,2013-03-03 00:15:00
6:35 PM,27.3,23.4,85,30.11,10.0,NNW,16.1,21.9,N/A,,Overcast,330,2013-03-03 00:35:00
6:55 PM,27.5,21.0,77,30.11,10.0,NNW,12.7,-,N/A,,Overcast,340,2013-03-03 00:55:00
7:15 PM,27.5,19.6,72,30.11,10.0,NNW,13.8,-,N/A,,Overcast,340,2013-03-03 01:15:00
7:35 PM,27.3,18.9,70,30.11,10.0,NW,12.7,17.3,N/A,,Overcast,320,2013-03-03 01:35:00
7:55 PM,27.1,19.2,72,30.11,10.0,NW,12.7,17.3,N/A,,Overcast,320,2013-03-03 01:55:00
8:15 PM,27.1,19.8,74,30.12,10.0,NW,12.7,20.7,N/A,,Overcast,320,2013-03-03 02:15:00
8:35 PM,26.8,19.9,75,30.12,10.0,NW,9.2,16.1,N/A,,Overcast,310,2013-03-03 02:35:00
8:55 PM,26.8,19.8,75,30.12,10.0,NW,12.7,17.3,N/A,,Overcast,310,2013-03-03 02:55:00
9:15 PM,26.6,19.4,74,30.11,10.0,WNW,8.1,16.1,N/A,,Overcast,300,2013-03-03 03:15:00
9:35 PM,26.8,19.9,75,30.11,10.0,NW,11.5,18.4,N/A,,Overcast,310,2013-03-03 03:35:00
9:55 PM,26.6,20.3,77,30.11,10.0,WNW,8.1,-,N/A,,Overcast,300,2013-03-03 03:55:00
10:15 PM,27.1,20.8,77,30.11,10.0,NW,10.4,-,N/A,,Overcast,320,2013-03-03 04:15:00
10:35 PM,27.5,20.5,75,30.11,10.0,NW,15.0,19.6,N/A,,Overcast,310,2013-03-03 04:35:00
10:55 PM,27.1,20.8,77,30.11,10.0,NW,9.2,-,N/A,,Overcast,320,2013-03-03 04:55:00
11:15 PM,26.8,21.0,79,30.10,10.0,WNW,8.1,-,N/A,,Overcast,300,2013-03-03 05:15:00
11:35 PM,26.2,20.8,80,30.10,10.0,WNW,6.9,16.1,N/A,,Overcast,300,2013-03-03 05:35:00
11:55 PM,26.2,22.1,84,30.10,10.0,WNW,9.2,18.4,N/A,Snow,Light Snow,300,2013-03-03 05:55:00